[[{"header":{"parameterUnit":"m.s-1","parameterCategory":1,"la1":30.2991,"la2":30.254,"lo1":-89.0895,"lo2":-89.0444,"dy":0.0017,"dx":0.0017,"nx":28,"ny":28,"refTime":"2025-07-23T21:00:00:Z","depth":0,"parameterNumber":2,"parameterNumberName":"U-component_of_WINDS"},"data":[0,0,0,0,0,0,0,0,0,0,0,0,0,0,0,0,0,0,0,0,0,0,0,0,0,0,0,0,0,0,0,0,0,0,0,0,0,0,0,0,0,0,0,0,0,0,0,0,0,0,0,0,0,0,0,0,0,0,-1.5143,-1.5144,0,-1.5171,-1.5172,-1.5172,-1.5152,-1.5151,-1.515,-1.5149,-1.518,-1.5182,-1.5184,0,0,0,0,0,0,0,0,0,0,0,0,0,-1.5075,-1.5076,-1.5143,-1.5144,-1.5144,-1.5171,-1.5172,-1.5172,-1.5152,-1.5151,-1.515,-1.5149,-1.518,-1.5182,-1.5184,0,0,0,0,0,0,0,0,0,0,0,0,0,-1.5104,-1.5076,-1.5143,-1.5137,-1.5137,-1.5171,-1.5172,-1.5172,-1.5152,-1.5151,-1.515,-1.5148,-1.5179,-1.5182,-1.5184,-1.5227,0,0,-1.5192,-1.5193,0,0,0,0,0,0,0,0,-1.5102,-1.5106,-1.5138,-1.5138,-1.5137,-1.5157,-1.5159,-1.5191,-1.5153,-1.5147,-1.5149,-1.5148,-1.5174,-1.5177,-1.5185,-1.5228,-1.5229,-1.5192,-1.5193,-1.5194,-1.5195,0,0,0,0,0,0,0,-1.51,-1.5105,-1.5155,-1.5138,-1.5138,-1.5134,-1.5137,-1.5165,-1.5167,-1.5147,-1.5146,-1.5149,-1.5173,-1.5183,-1.5185,-1.523,-1.5192,-1.5194,-1.5196,-1.5197,-1.531,-1.5311,0,0,0,0,0,0,-1.5098,-1.5104,-1.5154,-1.5155,-1.5116,-1.5136,-1.5139,-1.5152,-1.5167,-1.5168,-1.515,-1.5148,-1.5179,-1.5183,-1.5186,-1.5238,-1.5194,-1.5197,-1.5198,-1.5309,-1.531,-1.5312,0,0,0,0,0,0,-1.5097,-1.5103,-1.5152,-1.5129,-1.5135,-1.5139,-1.5153,-1.5153,-1.5162,-1.5169,-1.517,-1.5159,-1.5178,-1.5183,-1.5217,-1.5238,-1.5198,-1.52,-1.5307,-1.5309,-1.5311,-1.534,0,0,0,0,0,0,-1.5095,-1.5103,-1.5118,-1.513,-1.5136,-1.5182,-1.5155,-1.5155,-1.5166,-1.5164,-1.5178,-1.5179,-1.5177,-1.5213,-1.5219,-1.5241,-1.5202,-1.5305,-1.5308,-1.531,-1.5337,-1.5343,-1.5348,0,0,0,0,0,-1.5093,-1.5126,-1.5119,-1.5125,-1.5156,-1.5183,-1.5187,-1.5184,-1.5168,-1.5184,-1.5189,-1.5178,-1.5235,-1.5217,-1.5223,-1.5247,-1.5303,-1.5307,-1.531,-1.5335,-1.5342,-1.5348,0,0,0,0,0,0,-1.5118,-1.5127,-1.512,-1.5157,-1.5169,-1.5179,-1.52,-1.5191,-1.5209,-1.5206,-1.5202,-1.5205,-1.5241,-1.5247,-1.5226,-1.5289,-1.5267,-1.5272,-1.5283,-1.529,-1.5296,-1.5294,-1.5204,0,0,0,0,0,-1.5127,-1.5148,-1.5155,-1.5188,-1.5194,-1.5196,-1.5207,-1.5204,-1.5217,-1.5222,-1.5229,-1.5242,-1.5263,-1.5277,-1.5297,-1.5338,-1.5341,-1.5357,-1.5363,-1.5367,-1.5372,-1.5395,-1.5402,-1.5323,-1.5323,-1.5323,0,0,-1.5148,-1.5156,-1.5169,-1.5193,-1.5202,-1.5224,-1.52,-1.5224,-1.5241,-1.5226,-1.5258,-1.5264,-1.5279,-1.5317,-1.5334,-1.5323,-1.5394,-1.5372,-1.5375,-1.5377,-1.5399,-1.5407,-1.5413,-1.5326,-1.5325,-1.5325,0,0,-1.5197,-1.5204,-1.5232,-1.5242,-1.5255,-1.5256,-1.5263,-1.5274,-1.5277,-1.5309,-1.5299,-1.5319,-1.5355,-1.5366,-1.5376,-1.5429,-1.542,-1.5436,-1.5464,-1.5487,-1.5493,-1.5499,-1.5518,-1.5525,-1.544,-1.544,-1.544,0,-1.5221,-1.5253,-1.5248,-1.5273,-1.5284,-1.5271,-1.53,-1.5309,-1.5329,-1.5337,-1.5325,-1.537,-1.5379,-1.5419,-1.5432,-1.5441,-1.5449,-1.5434,-1.5493,-1.5498,-1.5503,-1.5522,-1.5529,-1.5442,-1.5442,-1.5442,-1.5442,0,-1.5282,-1.5304,-1.5326,-1.5344,-1.5358,-1.5385,-1.5385,-1.5399,-1.5395,-1.5397,-1.5431,-1.5441,-1.5463,-1.5472,-1.5468,-1.5512,-1.5505,-1.5493,-1.5471,-1.5513,-1.553,-1.5537,-1.5445,-1.5444,-1.5443,-1.5443,0,0,-1.5348,-1.5363,-1.5371,-1.5379,-1.5393,-1.5411,-1.5438,-1.5458,-1.5471,-1.5485,-1.5508,-1.5538,-1.5527,-1.5539,-1.5536,-1.5556,-1.5598,-1.5541,-1.5541,-1.5552,-1.5648,-1.5658,-1.5666,-1.5592,-1.5594,-1.5595,-1.5647,0,-1.5397,-1.5443,-1.5439,-1.5483,-1.5504,-1.5491,-1.5515,-1.5526,-1.553,-1.5549,-1.5553,-1.5575,-1.5558,-1.5565,-1.5584,-1.5589,-1.5618,-1.5585,-1.5614,-1.5615,-1.5611,-1.5675,-1.5685,-1.5735,-1.5654,-1.5655,-1.5656,0,-1.5462,-1.5477,-1.5522,-1.5534,-1.5542,-1.5563,-1.5582,-1.56,-1.5613,-1.5614,-1.5627,-1.5622,-1.5649,-1.5626,-1.5665,-1.5643,-1.5655,-1.5659,-1.5661,-1.5664,-1.5638,-1.568,-1.575,-1.5758,-1.5667,-1.5666,-1.5665,0,-1.5506,-1.5538,-1.5569,-1.5577,-1.559,-1.5605,-1.5612,-1.5624,-1.5636,-1.5653,-1.5661,-1.5681,-1.5692,-1.5708,-1.5708,-1.5692,-1.5748,-1.5725,-1.575,-1.5751,-1.5763,-1.5762,-1.5836,-1.577,-1.577,-1.577,-1.577,0,-1.5562,-1.559,-1.5589,-1.5608,-1.564,-1.5636,-1.5668,-1.5673,-1.5684,-1.5704,-1.5695,-1.5715,-1.5713,-1.5734,-1.5734,-1.5767,-1.5772,-1.5774,-1.5774,-1.5775,-1.5775,-1.5783,-1.578,-1.5772,-1.5771,-1.5771,-1.5771,0,-1.5617,-1.5617,-1.565,-1.566,-1.5663,-1.5686,-1.5695,-1.5714,-1.5716,-1.5743,-1.5749,-1.5753,-1.5777,-1.5778,-1.5805,-1.5806,-1.5845,-1.5841,-1.584,-1.584,-1.5866,-1.5863,-1.5948,-1.5959,-1.5885,-1.5886,-1.5886,0,-1.5653,-1.5674,-1.5686,-1.5699,-1.5706,-1.5727,-1.574,-1.5737,-1.5751,-1.5767,-1.5784,-1.5807,-1.5825,-1.5863,-1.5869,-1.589,-1.5887,-1.5915,-1.589,-1.5891,-1.5888,-1.5887,-1.5889,-1.592,-1.5921,-1.5921,-1.5922,0,-1.5717,-1.5716,-1.5734,-1.5753,-1.5768,-1.5782,-1.5796,-1.5807,-1.5806,-1.5822,-1.5846,-1.5859,-1.5887,-1.591,-1.593,-1.5938,-1.593,-1.593,-1.5937,-1.5939,-1.5938,-1.5939,-1.5854,-1.5928,-1.5927,-1.5927,-1.5927,-1.5926,-1.5764,-1.5783,-1.5794,-1.5815,-1.5824,-1.5837,-1.5855,-1.586,-1.5879,-1.5901,-1.5898,-1.5924,-1.5938,-1.5964,-1.5974,-1.5995,-1.5985,-1.5996,-1.5998,-1.6001,-1.6004,-1.5934,-1.5998,-1.5998,-1.5998,-1.5998,-1.5998,0,-1.5829,-1.5835,-1.5854,-1.5873,-1.589,-1.588,-1.5894,-1.5909,-1.5932,-1.5944,-1.5962,-1.5989,-1.6011,-1.6019,-1.604,-1.6056,-1.6053,-1.6062,-1.6061,-1.6063,-1.6011,-1.6003,-1.6064,-1.6064,-1.6064,-1.6064,-1.6064,-1.6064,-1.5865,-1.5895,-1.5896,-1.5932,-1.5938,-1.5963,-1.5972,-1.5985,-1.5994,-1.6025,-1.6043,-1.6047,-1.6058,-1.6081,-1.6101,-1.6102,-1.6111,-1.6122,-1.6122,-1.6073,-1.6067,-1.606,-1.6053,-1.6123,-1.6123,-1.6172,-1.6173,-1.6173]},{"header":{"parameterUnit":"m.s-1","parameterCategory":1,"la1":30.2991,"la2":30.254,"lo1":-89.0895,"lo2":-89.0444,"dy":0.0017,"dx":0.0017,"nx":28,"ny":28,"refTime":"2025-07-23T21:00:00:Z","depth":0,"parameterNumber":3,"parameterNumberName":"V-component_of_WINDS"},"data":[0,0,0,0,0,0,0,0,0,0,0,0,0,0,0,0,0,0,0,0,0,0,0,0,0,0,0,0,0,0,0,0,0,0,0,0,0,0,0,0,0,0,0,0,0,0,0,0,0,0,0,0,0,0,0,0,0,0,4.1516,4.1516,0,4.1559,4.156,4.156,4.1498,4.1496,4.1494,4.1492,4.1533,4.1536,4.1539,0,0,0,0,0,0,0,0,0,0,0,0,0,4.1375,4.1378,4.1516,4.1516,4.1517,4.1559,4.156,4.156,4.1498,4.1496,4.1493,4.1491,4.1532,4.1535,4.1539,0,0,0,0,0,0,0,0,0,0,0,0,0,4.1429,4.1379,4.1516,4.1491,4.1489,4.1559,4.156,4.156,4.1499,4.1496,4.1492,4.1489,4.153,4.1535,4.154,4.1634,0,0,4.1554,4.1556,0,0,0,0,0,0,0,0,4.1426,4.1434,4.1494,4.1493,4.1491,4.152,4.1525,4.1585,4.15,4.1495,4.1492,4.1488,4.1531,4.1535,4.1551,4.1636,4.1638,4.1554,4.1557,4.1559,4.1561,0,0,0,0,0,0,0,4.1422,4.1432,4.1533,4.1495,4.1493,4.1476,4.1481,4.1536,4.1531,4.1495,4.1491,4.1497,4.1529,4.1546,4.1551,4.1638,4.1554,4.1558,4.1561,4.1563,4.1801,4.1804,0,0,0,0,0,0,4.1422,4.1429,4.1531,4.1534,4.145,4.1482,4.1486,4.1514,4.153,4.1529,4.15,4.1494,4.154,4.1546,4.1552,4.1662,4.1559,4.1564,4.1566,4.1798,4.1802,4.1806,0,0,0,0,0,0,4.1419,4.1432,4.153,4.148,4.1492,4.1488,4.1519,4.1517,4.1533,4.1534,4.1532,4.1518,4.1537,4.1546,4.1614,4.1663,4.1566,4.157,4.1793,4.1799,4.1804,4.1884,0,0,0,0,0,0,4.1415,4.1431,4.1468,4.1482,4.1495,4.1592,4.1522,4.152,4.1542,4.1535,4.155,4.155,4.1536,4.1607,4.1619,4.1667,4.1574,4.1789,4.1796,4.1802,4.1877,4.1891,4.1903,0,0,0,0,0,4.1411,4.1489,4.147,4.1483,4.1541,4.1595,4.1602,4.1585,4.1546,4.1582,4.1582,4.1549,4.1656,4.1615,4.1627,4.1678,4.1786,4.1794,4.1802,4.1871,4.1888,4.1903,0,0,0,0,0,0,4.148,4.149,4.147,4.1555,4.1575,4.1585,4.163,4.1605,4.1635,4.1627,4.1604,4.1608,4.168,4.1686,4.164,4.1769,4.1714,4.1725,4.1762,4.1779,4.1792,4.1788,4.1578,0,0,0,0,0,4.1505,4.155,4.1556,4.163,4.1641,4.1634,4.1657,4.1642,4.1661,4.1669,4.1674,4.1693,4.173,4.1755,4.179,4.1878,4.1879,4.1919,4.1932,4.1943,4.1952,4.1996,4.2013,4.1832,4.1831,4.1831,0,0,4.1557,4.1569,4.1598,4.1644,4.1658,4.1703,4.1641,4.1692,4.1724,4.1676,4.1741,4.1745,4.1764,4.1842,4.1877,4.1849,4.2002,4.1953,4.1962,4.1965,4.2006,4.2023,4.2039,4.1837,4.1836,4.1835,0,0,4.1675,4.169,4.1752,4.1767,4.1789,4.1783,4.1798,4.1812,4.1813,4.1878,4.1842,4.188,4.1946,4.196,4.1976,4.2099,4.2068,4.2111,4.2179,4.2223,4.2238,4.225,4.2292,4.2307,4.212,4.212,4.212,0,4.1737,4.1805,4.1787,4.184,4.186,4.182,4.1881,4.1897,4.1928,4.1942,4.1911,4.1992,4.2002,4.2082,4.2112,4.2127,4.2141,4.2108,4.2237,4.225,4.2261,4.23,4.2316,4.2125,4.2124,4.2124,4.2123,0,4.1879,4.1926,4.1974,4.2006,4.2032,4.2089,4.2078,4.2106,4.2089,4.2086,4.2151,4.2162,4.2197,4.2216,4.2199,4.2293,4.2275,4.2241,4.2185,4.2283,4.232,4.2335,4.2132,4.213,4.2129,4.2127,0,0,4.2041,4.2062,4.208,4.2093,4.2113,4.2149,4.2203,4.2239,4.2262,4.2285,4.2329,4.2385,4.2353,4.2372,4.2357,4.2395,4.2489,4.2357,4.2357,4.2379,4.259,4.2613,4.2631,4.247,4.2473,4.2475,4.2587,0,4.2157,4.2252,4.2237,4.2328,4.237,4.2332,4.2379,4.2396,4.2395,4.2429,4.2427,4.2467,4.2424,4.2434,4.2471,4.247,4.2531,4.2462,4.2508,4.251,4.2503,4.2651,4.2676,4.2782,4.2602,4.2604,4.2606,0,4.2305,4.2334,4.243,4.2442,4.2459,4.2502,4.2532,4.2566,4.2583,4.258,4.26,4.2577,4.263,4.2575,4.2645,4.2599,4.2617,4.2619,4.2623,4.2625,4.2563,4.2655,4.2815,4.283,4.2629,4.2627,4.2625,0,4.2411,4.2474,4.2538,4.2551,4.2568,4.2599,4.2607,4.2621,4.2643,4.2669,4.2682,4.2714,4.2731,4.2755,4.2741,4.2703,4.2814,4.2758,4.281,4.2811,4.2834,4.2832,4.2997,4.2849,4.2849,4.2849,4.2848,0,4.2541,4.26,4.2586,4.2626,4.269,4.2672,4.2736,4.2739,4.2753,4.2791,4.276,4.2796,4.2777,4.2811,4.28,4.2859,4.2868,4.2864,4.286,4.2866,4.2866,4.2876,4.2868,4.2853,4.2852,4.2851,4.285,0,4.267,4.2663,4.273,4.2741,4.2745,4.2792,4.28,4.2836,4.2832,4.2881,4.2891,4.2886,4.2924,4.2913,4.2955,4.2948,4.3022,4.3009,4.3016,4.3012,4.3064,4.3059,4.324,4.3262,4.3102,4.3103,4.3105,0,4.2752,4.2797,4.2812,4.2836,4.2846,4.2886,4.2907,4.2891,4.2914,4.2937,4.297,4.3006,4.3034,4.3097,4.3096,4.3127,4.3114,4.3176,4.3119,4.3122,4.3113,4.3109,4.3113,4.3186,4.3188,4.319,4.3191,0,4.2898,4.2893,4.2926,4.2958,4.2985,4.3009,4.303,4.3051,4.3036,4.3064,4.3103,4.3125,4.3168,4.3203,4.3232,4.3238,4.3212,4.3209,4.3223,4.3228,4.3229,4.3227,4.3044,4.3205,4.3203,4.3202,4.3202,4.3201,4.3005,4.3042,4.3058,4.3096,4.311,4.313,4.3164,4.3165,4.3198,4.3232,4.322,4.3265,4.3279,4.3315,4.3325,4.3359,4.3335,4.3355,4.336,4.3365,4.337,4.3225,4.3364,4.3364,4.3364,4.3363,4.3363,0,4.3148,4.3156,4.3191,4.3222,4.3251,4.3225,4.3246,4.3272,4.3312,4.3329,4.3357,4.3401,4.3435,4.3437,4.3468,4.3495,4.3483,4.3503,4.35,4.3502,4.3391,4.3375,4.3512,4.3512,4.3512,4.3512,4.3512,4.3512,4.3225,4.3286,4.3282,4.3349,4.3357,4.3401,4.3415,4.3433,4.3446,4.3497,4.3526,4.3527,4.3537,4.3568,4.3598,4.3597,4.3609,4.3634,4.3628,4.3524,4.351,4.3495,4.348,4.3637,4.3637,4.3736,4.3737,4.3737]}]]